METAR Formatted Surface Weather Observation
Issued by NWS

Home | Current Version | Previous Version | Text Only | Print | Product List | Glossary On
Versions: 1 2 3 4 5 6 7 8 9 10 11 12 13 14 15 16 17 18 19 20 21 22 23 24 25 26 27 28 29 30 31 32 33 34 35 36 37 38 39 40 41 42 43 44 45 46 47 48 49 50
032
SAUS42 KJAX 271153
MTRNRB
METAR KNRB 271152Z 00000KT 10SM SCT017 BKN100 BKN250 25/24 A3002 RMK
AO2 RAE07 SLP164 P0000 60001 70114 T02500244 10250 20239 53008



USA.gov is the U.S. government's official web portal to all federal, state and local government web resources and services.